Change the Weather History Date:

Friday, August 30, 2013

  Actual Average Record
Temperature  
Mean Temperature 87 °F 84 °F  
Max Temperature 98 °F 93 °F 107 °F (2012)
Min Temperature 75 °F 75 °F 69 °F (1942)
Degree Days  
Heating Degree Days 0 0  
Month to date heating degree days 0 0  
Since 1 June heating degree days 0 0  
Since 1 July heating degree days 0 0  
Cooling Degree Days 22 19  
Month to date cooling degree days 658 594  
Year to date cooling degree days 2991 2544  
Since 1 June cooling degree days 1973 1703  
Growing Degree Days 36 (Base 50)    
Moisture  
Dew Point 71 °F    
Average Humidity 63    
Maximum Humidity 88    
Minimum Humidity 38    
Precipitation  
Precipitation 0.00 in 0.15 in 4.46 in (1942)
Month to date precipitation 1.21 2.76  
Year to date precipitation 11.01 19.18  
Snow  
Snow 0.00 in - - ()
Month to date snowfall 0.0  
Since 1 June snowfall 0.0  
Since 1 July snowfall 0.0  
Snow Depth 0.00 in    
Sea Level Pressure  
Sea Level Pressure 29.96 in    
Wind  
Wind Speed 6 mph (SSE)    
Max Wind Speed 16 mph    
Max Gust Speed 22 mph    
Visibility 10 miles    
Events      
T = Trace of Precipitation, MM = Missing Value Source: NWS Daily Summary

Daily Weather History Graph

Daily Weather History Graph

Search for Another Location

Airport or City:

Trip Planner

Search our weather history database for the weather conditions in past years. The results will help you decide how hot, cold, wet, or windy it might be!

Date:

Astronomy

Aug. 30, 2013 Rise Set
Actual Time 7:08 AM CDT 7:52 PM CDT
Civil Twilight 6:44 AM CDT 8:16 PM CDT
Nautical Twilight 6:16 AM CDT 8:44 PM CDT
Astronomical Twilight 5:47 AM CDT 9:13 PM CDT
Moon 2:03 AM CDT (8/30) 3:54 PM CDT (8/30)
Length of Visible Light 13h 32m
Length of Day
12h 44m
Waning Crescent, 29% of the Moon is Illuminated
Aug 30
Waning Crescent
Sep 5
New
Sep 12
First Quarter
Sep 19
Full
Sep 26
Last Quarter

Hourly Weather History & Observations

Time (CDT) Temp. Heat Index Dew Point Humidity Pressure Visibility Wind Dir Wind Speed Gust Speed Precip Events Conditions
12:51 AM 80.1 °F 83.8 °F 72.0 °F 76% 29.99 in 10.0 mi South 5.8 mph - N/A   Clear
1:51 AM 81.0 °F 85.8 °F 73.0 °F 77% 29.99 in 10.0 mi South 5.8 mph - N/A   Clear
2:51 AM 78.1 °F - 72.0 °F 81% 29.99 in 10.0 mi South 4.6 mph - N/A   Clear
3:51 AM 78.1 °F - 72.0 °F 81% 29.99 in 10.0 mi SSW 3.5 mph - N/A   Partly Cloudy
4:51 AM 75.9 °F - 72.0 °F 87% 29.97 in 10.0 mi Calm Calm - N/A   Partly Cloudy
5:51 AM 75.0 °F - 70.0 °F 84% 29.98 in 10.0 mi WSW 3.5 mph - N/A   Partly Cloudy
6:51 AM 75.0 °F - 71.1 °F 87% 29.99 in 10.0 mi West 3.5 mph - N/A   Partly Cloudy
7:51 AM 77.0 °F - 73.0 °F 88% 30.00 in 10.0 mi Calm Calm - N/A   Partly Cloudy
8:51 AM 82.9 °F 89.4 °F 73.9 °F 74% 30.01 in 10.0 mi SSW 4.6 mph - N/A   Partly Cloudy
9:51 AM 87.1 °F 94.5 °F 73.0 °F 63% 30.03 in 10.0 mi SSE 4.6 mph - N/A   Partly Cloudy
10:51 AM 90.0 °F 94.5 °F 69.1 °F 50% 30.02 in 10.0 mi Calm Calm - N/A   Scattered Clouds
11:51 AM 95.0 °F 100.7 °F 69.1 °F 43% 30.01 in 10.0 mi Calm Calm - N/A   Scattered Clouds
12:51 PM 91.9 °F 95.9 °F 68.0 °F 45% 29.99 in 10.0 mi Calm Calm - N/A   Scattered Clouds
1:51 PM 93.9 °F 100.3 °F 70.0 °F 46% 29.97 in 10.0 mi East 11.5 mph 18.4 mph N/A   Scattered Clouds
2:51 PM 96.1 °F 101.0 °F 68.0 °F 40% 29.95 in 10.0 mi ESE 10.4 mph - N/A   Scattered Clouds
3:51 PM 97.0 °F 101.0 °F 66.9 °F 37% 29.93 in 10.0 mi ESE 12.7 mph 19.6 mph N/A   Scattered Clouds
4:51 PM 95.0 °F 99.5 °F 68.0 °F 41% 29.91 in 10.0 mi ESE 12.7 mph - N/A   Partly Cloudy
5:51 PM 93.9 °F 99.1 °F 69.1 °F 44% 29.91 in 10.0 mi ESE 13.8 mph - N/A   Partly Cloudy
6:51 PM 91.0 °F 96.6 °F 70.0 °F 50% 29.91 in 10.0 mi SE 13.8 mph - N/A   Partly Cloudy
7:51 PM 87.1 °F 92.8 °F 71.1 °F 59% 29.91 in 10.0 mi SSE 13.8 mph - N/A   Clear
8:51 PM 86.0 °F 92.2 °F 72.0 °F 63% 29.91 in 10.0 mi SSE 10.4 mph - N/A   Clear
9:51 PM 84.0 °F 89.0 °F 71.1 °F 65% 29.92 in 10.0 mi SSE 8.1 mph - N/A   Clear
10:51 PM 82.0 °F 86.7 °F 72.0 °F 71% 29.92 in 10.0 mi SSE 6.9 mph - N/A   Clear
11:51 PM 81.0 °F 84.9 °F 71.1 °F 72% 29.92 in 10.0 mi South 5.8 mph - N/A   Clear